Theta_e
317 317 316 317 317 317 317 317 317 316 316 315 315 316 318 318 317 316 315 313 309 304 300 298 297 296 296 296 295 295 295 295 295 294 294 294 293 293 293 293 292 292
318 318 317 317 317 317 317 317 317 317 315 315 315 316 318 318 317 316 315 313 309 304 300 297 296 296 296 296 295 295 295 295 294 294 294 294 293 293 293 292 292 292
318 318 318 317 317 318 318 318 317 317 316 315 315 317 319 319 317 316 315 312 309 303 299 297 296 296 296 295 295 295 295 295 294 293 293 294 293 292 292 292 292 292
318 318 318 317 317 317 318 318 318 317 316 316 317 319 320 319 317 316 315 312 308 303 299 297 296 296 295 295 295 295 294 294 294 293 293 293 293 292 292 292 292 292
319 319 319 318 318 318 318 318 318 317 316 317 318 320 321 319 318 317 314 312 308 303 299 297 296 296 295 295 295 294 294 294 293 293 293 293 292 292 291 291 292 292
320 320 320 320 319 319 319 319 318 317 317 319 319 320 321 319 318 316 314 312 308 303 299 296 296 295 295 295 295 294 294 294 293 293 292 293 292 292 291 291 292 292
320 320 320 320 320 320 320 320 320 320 320 320 320 321 321 319 318 316 313 312 308 303 299 296 296 295 295 295 295 294 294 294 293 293 292 293 292 292 291 291 292 292
321 321 321 321 320 320 321 321 321 321 321 321 321 322 321 319 318 316 313 311 308 304 299 297 295 295 295 295 295 294 294 293 293 293 292 292 292 293 292 292 292 292
322 322 322 322 322 322 322 322 322 322 323 323 322 322 321 318 317 315 313 311 308 303 299 296 295 295 295 294 294 294 294 293 293 293 292 292 292 293 292 292 292 291
322 322 322 322 322 323 323 323 323 323 323 324 323 323 321 318 317 315 313 311 308 303 298 296 296 295 295 294 294 294 294 293 293 293 292 292 292 292 292 292 292 291
322 322 322 322 323 323 324 324 324 324 324 324 324 324 321 318 317 315 312 311 307 302 298 296 295 295 294 294 294 294 293 293 293 293 292 292 292 292 291 291 292 291
322 322 323 323 323 323 324 325 325 325 324 325 325 324 321 318 317 315 312 311 306 301 298 296 295 295 294 294 294 294 293 293 292 292 292 292 292 291 291 291 291 290
322 322 322 323 323 323 324 325 325 325 325 325 325 324 321 318 317 315 312 310 306 301 298 296 295 295 294 294 294 293 293 293 293 292 292 292 292 291 291 291 290 289
322 322 322 323 323 324 325 325 325 325 325 326 326 325 321 318 317 314 312 310 305 301 298 296 295 295 294 294 294 293 293 293 293 292 292 292 292 292 291 290 290 289
322 323 323 324 324 324 324 325 325 325 326 326 327 325 321 318 317 314 312 310 305 301 298 296 295 295 294 294 294 293 293 293 293 293 292 292 292 292 291 291 290 290
323 324 324 324 324 324 324 325 324 325 326 326 327 325 320 318 317 314 312 309 304 300 298 296 295 295 294 294 294 293 293 293 293 293 292 292 292 292 291 291 291 291
323 324 324 324 324 324 324 324 324 325 325 326 326 324 319 318 316 314 312 309 304 300 298 296 295 295 294 294 294 293 293 293 293 293 293 292 292 292 292 292 292 292
323 323 324 324 324 324 324 324 324 324 326 326 325 321 318 318 316 313 312 309 304 300 298 296 295 295 295 294 294 293 293 293 293 293 293 293 293 293 293 292 292 292
323 323 324 324 324 324 324 324 324 325 326 326 322 319 318 317 315 313 312 309 304 300 298 296 295 295 295 294 294 294 293 293 293 293 293 293 293 293 293 292 292 292
324 324 324 324 324 324 324 324 324 325 326 325 321 319 318 317 315 313 311 308 304 300 298 296 296 295 295 294 294 294 294 293 293 293 293 293 293 293 293 292 292 292
324 324 324 324 324 324 324 324 324 325 326 325 322 319 318 317 314 312 311 308 304 300 298 296 296 295 295 295 294 294 294 294 293 293 293 293 292 292 292 292 292 292
325 324 324 324 324 324 324 324 325 326 326 326 323 319 317 316 314 312 311 308 304 300 298 296 296 295 295 295 294 294 294 294 293 293 293 292 292 292 292 292 292 292
325 324 324 324 324 325 325 325 326 326 327 327 324 319 317 315 313 312 311 307 304 301 298 296 296 295 295 295 295 294 294 294 294 293 293 293 292 292 292 292 291 291
325 325 325 325 325 325 325 326 327 327 327 327 323 318 316 314 313 312 310 307 304 301 298 296 296 295 295 295 295 294 294 294 294 294 293 293 292 292 292 292 291 291
325 325 325 325 325 325 325 327 327 328 328 326 321 317 315 314 312 311 310 307 304 301 299 297 296 295 295 295 295 294 294 294 294 294 293 293 293 292 292 292 291 291
325 325 325 325 325 325 326 327 327 329 328 324 319 316 315 313 312 312 310 307 304 302 300 297 296 295 295 295 295 294 294 294 294 294 293 293 293 292 292 292 291 291
Wind_Speed
7 6 6 6 7 7 6 5 5 7 8 8 8 10 11 11 12 11 11 13 15 16 14 12 12 12 11 10 9 9 8 7 6 6 6 6 8 9 10 10 10 11
8 7 8 8 7 7 7 7 8 9 9 10 10 11 11 11 12 11 11 12 14 15 13 11 11 11 10 9 8 8 7 6 6 6 6 7 8 9 9 10 10 10
10 10 11 10 9 8 9 9 10 11 12 12 11 11 11 11 11 10 11 12 14 14 12 10 10 10 9 8 7 7 6 6 6 6 6 7 8 7 8 9 9 9
13 11 11 11 11 11 11 12 12 13 13 12 10 10 11 11 11 10 11 13 14 13 11 10 10 9 9 8 6 6 6 5 6 6 6 6 7 6 7 8 8 9
13 12 12 12 12 11 12 13 13 13 12 10 10 11 12 11 10 10 11 13 14 13 11 9 9 9 8 7 6 6 5 5 5 5 5 6 6 6 7 8 8 10
14 13 13 13 12 11 11 11 12 12 11 10 11 13 13 11 10 10 11 12 13 12 10 9 8 8 8 7 6 5 5 5 4 4 5 6 6 6 7 8 9 10
15 15 15 14 13 12 11 10 11 11 11 12 13 14 14 11 10 10 11 12 13 11 9 8 7 7 7 7 6 5 4 5 4 4 4 6 6 7 7 8 9 11
13 12 13 13 13 13 12 11 12 12 13 15 15 16 15 11 9 10 11 12 13 11 9 8 7 6 6 6 6 6 5 5 5 4 4 5 6 7 8 9 10 11
11 10 10 11 12 13 14 13 13 15 16 16 17 17 15 11 10 10 11 12 13 11 9 7 7 6 6 6 6 6 5 5 5 5 5 6 6 7 9 9 10 12
12 11 11 12 14 15 15 15 15 16 17 16 17 17 14 11 10 10 11 12 12 10 8 7 7 6 6 6 6 5 5 5 5 6 6 6 7 7 9 9 10 12
14 13 14 15 16 16 16 17 17 17 17 16 17 17 15 12 10 10 11 12 12 10 9 8 8 7 6 6 6 6 5 5 6 6 7 7 7 8 9 9 10 11
15 15 16 18 18 18 17 18 18 19 18 17 17 17 15 13 11 10 11 12 12 10 9 9 8 8 7 6 7 7 6 6 6 6 7 7 8 8 9 9 9 10
17 16 17 18 18 18 18 19 19 19 19 17 17 17 16 14 12 10 11 11 11 10 9 8 8 8 8 7 7 8 7 7 6 7 7 8 8 9 9 9 8 9
17 17 17 17 18 18 19 20 19 19 19 18 18 18 17 15 13 11 11 11 10 9 9 8 8 8 8 7 7 7 7 7 7 7 7 8 9 9 9 8 7 8
17 18 19 19 20 20 20 20 20 19 19 18 18 18 16 15 13 11 11 11 10 9 9 8 8 8 7 7 6 7 8 8 7 7 8 8 9 9 8 8 7 7
18 19 21 21 22 21 21 21 21 20 19 19 19 18 16 16 13 11 11 11 10 10 9 8 8 8 7 7 6 6 7 8 7 7 8 8 8 9 9 8 7 6
19 20 21 23 23 23 23 23 22 21 19 18 19 18 17 16 14 12 12 11 10 10 10 8 7 8 7 7 7 7 7 8 7 7 8 8 8 9 9 8 7 7
20 21 22 23 24 25 25 25 24 22 20 19 19 18 16 16 14 12 12 11 10 10 10 9 7 7 7 7 7 7 7 7 7 7 8 8 9 9 9 9 9 9
22 22 23 24 26 26 26 26 25 23 21 18 17 17 16 16 15 13 12 11 10 10 10 9 8 8 8 8 7 7 7 8 7 7 7 8 9 10 10 10 10 10
25 25 25 26 27 27 27 27 26 24 21 18 17 17 16 15 14 14 13 12 10 10 11 10 8 8 8 8 8 8 7 8 8 7 8 8 9 10 10 10 10 10
27 27 27 28 29 29 29 28 27 24 21 19 18 17 16 15 15 15 14 13 11 10 11 10 9 9 9 9 8 8 8 8 8 8 8 8 9 10 11 10 10 11
29 29 29 30 30 31 30 28 26 24 21 19 18 17 17 16 15 15 15 13 11 11 11 11 10 9 9 9 9 8 8 8 9 8 8 9 9 10 11 10 10 11
30 31 31 31 32 32 30 28 26 24 21 20 19 18 17 16 15 15 15 14 13 11 12 12 11 10 10 10 9 9 9 9 9 8 8 9 10 11 11 11 10 11
31 32 33 33 33 31 29 27 25 23 22 20 19 18 17 15 15 16 16 15 13 12 12 13 12 11 10 10 10 10 9 9 9 9 8 9 10 12 12 11 10 11
32 33 34 33 33 31 29 26 24 23 22 20 19 18 16 15 16 17 17 16 14 13 13 13 12 11 11 11 11 10 10 9 9 9 9 9 10 11 12 11 10 10
32 32 33 33 33 31 28 25 23 22 22 20 19 18 17 17 17 17 17 16 15 14 14 13 13 12 12 12 12 11 10 10 10 10 10 10 10 11 12 11 10 10
Wind_Direction
167 166 168 183 199 199 197 221 261 278 286 298 314 324 331 340 346 350 355 359 1 2 6 12 15 16 18 21 24 22 23 25 32 42 45 45 46 43 41 39 37 37
189 192 200 208 211 210 215 236 261 278 289 295 304 316 327 336 340 346 354 356 358 359 2 9 15 15 14 18 21 19 18 19 26 34 33 38 42 34 32 32 29 30
196 204 211 220 229 230 231 245 262 273 280 286 296 309 318 328 335 343 350 351 354 357 358 6 14 14 12 13 14 14 17 19 23 27 21 28 37 27 20 24 21 23
198 208 213 223 235 238 242 252 262 268 273 280 292 304 312 322 332 341 347 347 351 354 355 3 12 12 9 7 7 7 14 21 24 21 11 17 31 23 11 12 12 16
206 215 217 225 233 240 252 260 263 266 271 281 294 301 307 316 329 339 343 345 349 350 350 357 8 11 7 1 0 1 7 16 20 12 358 5 20 17 7 3 2 9
216 223 227 234 239 245 254 259 262 266 272 284 291 294 299 310 327 336 340 343 347 347 344 348 2 7 3 358 355 355 0 7 13 5 349 355 7 8 4 358 356 4
219 226 232 239 242 239 241 251 263 270 276 283 286 287 293 306 323 331 336 339 342 344 339 342 359 1 354 349 347 352 360 1 2 356 345 350 356 359 0 356 353 359
212 220 226 231 233 232 238 251 264 271 278 283 283 283 291 303 316 325 332 334 337 341 337 340 358 358 346 339 340 349 357 357 352 345 348 352 349 351 355 351 349 354
206 213 217 228 237 242 249 256 261 268 276 281 281 282 289 298 308 317 326 328 332 335 334 340 355 356 345 337 338 345 347 346 344 341 350 352 345 345 347 344 346 350
210 218 225 239 249 254 259 261 261 264 271 278 279 281 286 291 298 309 319 324 328 330 330 338 351 352 345 338 336 339 342 340 338 339 345 345 340 338 338 339 344 347
216 224 232 241 250 258 263 264 265 265 269 275 278 280 283 285 291 303 313 321 326 327 328 333 342 343 337 335 335 337 343 340 335 336 340 340 336 333 333 337 341 345
221 227 234 241 250 258 263 266 269 269 269 272 275 279 281 280 285 297 309 320 324 323 322 325 331 331 327 330 333 334 338 338 336 337 336 336 333 329 333 337 341 346
226 231 237 244 252 259 264 268 272 272 270 269 274 280 281 277 280 292 305 316 320 317 313 315 321 321 319 321 325 327 328 329 333 334 333 333 329 329 337 339 341 347
231 236 242 247 253 258 262 267 271 272 269 267 273 282 280 274 275 287 302 312 316 310 305 308 311 311 310 312 315 319 318 320 325 327 329 330 325 327 338 343 341 344
232 237 243 245 251 256 260 266 270 270 269 268 273 280 277 270 272 284 299 309 310 302 297 298 302 303 303 304 308 312 311 313 318 322 325 326 323 322 332 346 349 341
232 238 243 245 250 256 260 265 267 269 271 270 274 278 272 265 269 280 294 304 303 293 290 291 295 299 299 300 305 306 306 307 312 318 320 320 320 317 320 340 356 349
233 237 243 246 251 255 259 263 265 268 271 272 274 274 266 261 266 276 290 299 294 285 285 287 291 297 298 299 304 303 301 303 306 313 317 316 318 314 313 331 352 354
236 238 242 246 250 255 258 261 263 265 268 271 274 270 260 259 264 273 286 293 289 282 283 286 290 296 297 296 298 298 296 298 302 309 315 316 315 311 314 331 346 349
239 241 242 246 250 253 256 258 260 263 266 271 274 266 256 256 262 271 283 291 289 282 280 285 290 292 293 292 293 295 295 297 301 309 315 317 314 311 318 332 340 342
240 241 242 245 249 251 254 256 258 261 265 269 271 262 254 256 263 271 282 289 288 281 279 283 287 288 289 289 290 293 295 297 302 310 315 317 316 316 322 331 333 334
239 240 241 244 247 250 252 253 256 260 262 267 271 264 256 258 263 270 280 287 287 280 277 280 283 283 285 286 288 292 295 298 303 310 315 318 318 318 323 328 329 329
239 241 242 244 246 248 249 251 255 260 262 267 271 263 254 256 261 268 279 285 284 277 273 275 277 278 281 284 286 290 294 298 303 310 315 315 315 317 321 326 326 325
241 242 243 244 245 246 248 251 258 261 263 269 270 260 253 256 262 269 278 282 282 276 268 269 271 273 277 282 284 288 292 296 301 308 314 313 311 313 319 323 322 321
241 243 245 244 245 246 249 255 261 263 266 271 267 256 253 257 261 268 275 279 281 276 266 265 267 269 274 278 281 285 289 294 299 304 309 309 306 310 315 319 319 320
240 243 245 245 246 248 252 259 264 265 267 269 261 251 250 253 258 266 274 278 279 275 267 265 267 268 271 275 278 283 286 290 295 299 303 303 302 305 311 314 318 319
241 244 246 247 248 249 253 260 262 263 265 262 252 246 248 251 256 266 274 277 278 274 267 265 265 266 269 272 274 279 283 286 290 294 298 299 298 301 306 310 315 316